20060725,000023,1555202,33.260875,-120.192250,24.1,19.397,33.572,45.805,1023.44,0.0,0.228,0.707,19.395, NaN, NaN,23.731,   NaN,18.59,1005.15,96.10,18.59,289.0,297.0,1.9,1.8,308.0,306.7,5.3,5.1,NaN, NaN,19.0,108.2,111.7,1153785623,1153785622,2,10.7,000023,000022,108.2,33.260990,-120.192402,10.69,NaN,NaN,19.677, NaN,NaN,NaN, NaN, NaN
20060725,000053,1555233,33.260353,-120.190567,24.4,19.409,33.573,45.819,988.09,0.0,0.228,0.703,19.402, NaN, NaN,23.728,   NaN,18.59,1005.17,96.13,18.59,292.0,295.0,2.3,1.9,316.6,312.1,5.1,5.0,NaN, NaN,19.0,111.9,114.0,1153785653,1153785652,2,10.6,000053,000052,111.9,33.260478,-120.190710,10.68,NaN,NaN,19.689, NaN,NaN,NaN, NaN, NaN
20060725,000123,1555263,33.259760,-120.188917,23.9,19.422,33.575,45.833,945.85,0.0,0.227,0.693,19.413, NaN, NaN,23.726,   NaN,18.65,1005.21,96.19,18.65,301.0,297.0,1.7,1.6,305.0,304.6,4.9,5.0,NaN, NaN,19.0,107.5,110.1,1153785683,1153785682,2,10.5,000083,000082,107.5,33.259880,-120.189065,11.00,NaN,NaN,19.702, NaN,NaN,NaN, NaN, NaN
20060725,000153,1555292,33.259228,-120.187233,24.0,19.433,33.572,45.841,935.96,0.0,0.229,0.704,19.423, NaN, NaN,23.722,   NaN,18.62,1005.19,96.16,18.62,279.0,289.0,2.0,2.0,311.3,311.9,5.6,5.3,NaN, NaN,20.0,110.7,113.1,1153785713,1153785712,2,11.2,000113,000112,110.7,33.259350,-120.187372,10.70,NaN,NaN,19.713, NaN,NaN,NaN, NaN, NaN
20060725,000223,1555322,33.258620,-120.185578,24.2,19.443,33.574,45.852,960.53,0.0,0.235,0.729,19.429, NaN, NaN,23.720,   NaN,18.68,1005.04,96.13,18.68,307.0,298.0,2.0,1.5,310.1,305.8,4.7,5.1,NaN, NaN,20.0,110.2,115.8,1153785743,1153785742,2,10.9,000143,000142,110.2,33.258740,-120.185715,10.95,NaN,NaN,19.723, NaN,NaN,NaN, NaN, NaN
20060725,000253,1555352,33.258082,-120.183900,24.1,19.453,33.575,45.863,991.39,0.0,0.236,0.738,19.435, NaN, NaN,23.718,   NaN,18.68,1005.10,96.13,18.68,302.0,299.0,2.7,1.7,316.4,305.5,4.8,5.0,NaN, NaN,20.0,107.7,111.2,1153785773,1153785772,2,10.8,000173,000172,107.7,33.258192,-120.184045,10.79,NaN,NaN,19.733, NaN,NaN,NaN, NaN, NaN
20060725,000323,1555382,33.257547,-120.182215,24.0,19.461,33.574,45.870,1012.06,0.0,0.243,0.771,19.444, NaN, NaN,23.715,   NaN,18.62,1005.04,96.10,18.65,300.0,300.0,1.7,2.0,305.9,309.4,5.0,5.0,NaN, NaN,20.0,108.9,110.0,1153785803,1153785802,2,11.1,000203,000202,108.9,33.257650,-120.182355,10.98,NaN,NaN,19.741, NaN,NaN,NaN, NaN, NaN
20060725,000353,1555413,33.256932,-120.180577,24.4,19.465,33.574,45.874,1028.54,0.0,0.245,0.779,19.447, NaN, NaN,23.714,   NaN,18.65,1005.02,96.16,18.65,294.0,308.0,1.8,1.3,308.0,301.8,5.2,4.9,NaN, NaN,21.0,109.5,114.4,1153785833,1153785832,2,11.3,000233,000232,109.5,33.257040,-120.180708,11.09,NaN,NaN,19.745, NaN,NaN,NaN, NaN, NaN
20060725,000423,1555442,33.256368,-120.178908,24.1,19.466,33.575,45.877,1068.98,0.0,0.245,0.783,19.456, NaN, NaN,23.715,   NaN,18.75,1004.94,96.19,18.75,274.0,275.0,2.3,1.7,313.2,308.1,5.9,5.7,NaN, NaN,22.0,110.4,111.8,1153785863,1153785862,2,11.2,000263,000262,110.4,33.256483,-120.179047,10.68,NaN,NaN,19.746, NaN,NaN,NaN, NaN, NaN
20060725,000453,1555472,33.255775,-120.177247,24.1,19.475,33.575,45.885,1144.18,0.0,0.253,0.830,19.453, NaN, NaN,23.713,   NaN,18.75,1005.02,96.37,18.72,246.0,250.0,2.0,1.1,306.8,301.0,6.7,6.1,NaN, NaN,21.0,110.9,114.0,1153785893,1153785892,2,11.0,000293,000292,110.9,33.255882,-120.177380,11.02,NaN,NaN,19.755, NaN,NaN,NaN, NaN, NaN
20060725,000523,1555502,33.255220,-120.175563,24.0,19.481,33.574,45.890,1236.46,0.0,0.259,0.867,19.453, NaN, NaN,23.711,   NaN,18.75,1004.99,96.10,18.75,268.0,306.0,1.0,1.0,299.0,298.4,5.8,5.1,NaN, NaN,21.0,109.0,109.3,1153785923,1153785922,2,11.0,000323,000322,109.0,33.255317,-120.175705,10.86,NaN,NaN,19.761, NaN,NaN,NaN, NaN, NaN
20060725,000553,1555532,33.254630,-120.173898,24.4,19.478,33.573,45.885,1152.87,0.0,0.261,0.863,19.456, NaN, NaN,23.710,   NaN,18.75,1005.04,96.13,18.75,227.0,243.0,1.8,1.2,302.2,301.0,6.9,6.2,NaN, NaN,20.0,111.2,111.8,1153785953,1153785952,2,10.9,000353,000352,111.1,33.254727,-120.174040,10.89,NaN,NaN,19.758, NaN,NaN,NaN, NaN, NaN
20060725,000623,1555563,33.254077,-120.172212,24.1,19.472,33.571,45.877,1111.23,0.0,0.268,0.891,19.453, NaN, NaN,23.711,   NaN,18.81,1005.10,96.23,18.81,267.0,232.0,1.5,0.9,304.4,296.0,5.9,6.2,NaN, NaN,20.0,109.6,110.9,1153785983,1153785982,2,11.6,000383,000382,109.9,33.254167,-120.172353,10.85,NaN,NaN,19.752, NaN,NaN,NaN, NaN, NaN
20060725,000653,1555593,33.253453,-120.170568,23.9,19.470,33.572,45.877,1077.97,0.0,0.269,0.893,19.453, NaN, NaN,23.712,   NaN,18.81,1005.10,96.31,18.81,315.0,177.0,0.4,0.4,293.4,290.2,5.4,6.1,NaN, NaN,21.0,110.2,111.9,1153786013,1153786012,2,11.4,000413,000412,110.2,33.253545,-120.170702,10.88,NaN,NaN,19.750, NaN,NaN,NaN, NaN, NaN
20060725,000723,1555622,33.252890,-120.168893,24.2,19.473,33.571,45.878,1060.89,0.0,0.272,0.904,19.450, NaN, NaN,23.710,   NaN,18.81,1004.94,96.27,18.81,288.0,296.0,2.6,2.0,316.2,309.2,5.4,5.0,NaN, NaN,23.0,108.7,111.1,1153786043,1153786042,2,10.5,000443,000442,108.7,33.252992,-120.169028,10.34,NaN,NaN,19.753, NaN,NaN,NaN, NaN, NaN
20060725,000753,1555652,33.252320,-120.167200,24.0,19.472,33.570,45.876,1051.91,0.0,0.273,0.910,19.447, NaN, NaN,23.709,   NaN,18.88,1004.97,96.16,18.88,269.0,277.0,2.6,1.9,313.8,308.5,6.3,5.8,NaN, NaN,22.0,109.5,111.5,1153786073,1153786072,2,11.1,000473,000472,109.5,33.252422,-120.167342,10.39,NaN,NaN,19.752, NaN,NaN,NaN, NaN, NaN
20060725,000823,1555682,33.251695,-120.165552,24.0,19.466,33.571,45.872,1021.65,0.0,0.273,0.906,19.444, NaN, NaN,23.712,   NaN,18.96,1004.85,96.10,18.96,286.0,295.0,3.5,2.2,325.7,312.6,5.8,5.2,NaN, NaN,22.0,110.4,112.3,1153786103,1153786102,2,10.8,000503,000502,110.4,33.251810,-120.165687,10.65,NaN,NaN,19.746, NaN,NaN,NaN, NaN, NaN
20060725,000853,1555712,33.251113,-120.163897,24.0,19.458,33.569,45.861,971.31,0.0,0.272,0.893,19.450, NaN, NaN,23.713,   NaN,18.84,1004.94,96.00,18.84,290.0,298.0,3.5,3.1,325.1,321.6,5.5,5.0,NaN, NaN,23.0,108.7,112.0,1153786133,1153786132,2,10.8,000533,000532,108.7,33.251222,-120.164033,10.48,NaN,NaN,19.738, NaN,NaN,NaN, NaN, NaN
20060725,000923,1555743,33.250568,-120.162232,24.1,19.454,33.572,45.860,913.19,0.0,0.275,0.898,19.447, NaN, NaN,23.716,   NaN,18.78,1005.10,95.79,18.78,291.0,289.0,3.8,2.8,328.1,317.9,5.5,5.4,NaN, NaN,24.0,108.2,113.1,1153786163,1153786162,2,10.8,000563,000562,108.2,33.250673,-120.162370,10.46,NaN,NaN,19.734, NaN,NaN,NaN, NaN, NaN
20060725,000953,1555773,33.249955,-120.160585,24.2,19.462,33.570,45.867,870.95,0.0,0.278,0.906,19.444, NaN, NaN,23.713,   NaN,18.81,1005.12,95.75,18.81,291.0,291.0,3.1,2.4,325.8,317.8,5.3,5.2,NaN, NaN,22.0,112.4,117.9,1153786193,1153786192,2,10.5,000593,000592,112.4,33.250075,-120.160717,10.57,NaN,NaN,19.742, NaN,NaN,NaN, NaN, NaN
20060725,001023,1555802,33.249308,-120.158952,23.9,19.468,33.570,45.872,854.17,0.0,0.286,0.944,19.444, NaN, NaN,23.711,   NaN,18.75,1005.17,95.79,18.75,292.0,299.0,3.4,3.2,324.7,323.8,5.3,4.8,NaN, NaN,23.0,108.0,115.2,1153786223,1153786222,2,10.3,000623,000622,108.0,33.249425,-120.159087,10.58,NaN,NaN,19.748, NaN,NaN,NaN, NaN, NaN
20060725,001053,1555832,33.248768,-120.157262,24.3,19.466,33.567,45.867,875.44,0.0,0.298,1.002,19.439, NaN, NaN,23.709,   NaN,18.72,1005.10,95.69,18.75,293.0,298.0,3.1,2.9,323.5,321.4,5.2,4.9,NaN, NaN,22.0,110.2,113.2,1153786253,1153786252,2,10.7,000653,000652,110.2,33.248882,-120.157395,10.64,NaN,NaN,19.746, NaN,NaN,NaN, NaN, NaN
20060725,001123,1555862,33.248110,-120.155623,24.0,19.458,33.567,45.859,921.28,0.0,0.299,1.016,19.429, NaN, NaN,23.711,   NaN,18.78,1005.17,95.88,18.78,275.0,295.0,2.9,1.6,317.7,305.8,6.1,5.2,NaN, NaN,23.0,109.6,115.1,1153786283,1153786282,2,11.4,000683,000682,109.6,33.248225,-120.155753,10.54,NaN,NaN,19.738, NaN,NaN,NaN, NaN, NaN
20060725,001153,1555892,33.247527,-120.153952,23.9,19.448,33.566,45.848,1001.27,0.0,0.305,1.057,19.423, NaN, NaN,23.713,   NaN,18.75,1005.04,95.85,18.78,275.0,278.0,3.0,1.7,316.4,305.1,6.1,5.6,NaN, NaN,22.0,107.2,110.0,1153786313,1153786312,2,11.1,000713,000712,107.2,33.247633,-120.154087,10.64,NaN,NaN,19.728, NaN,NaN,NaN, NaN, NaN
20060725,001223,1555923,33.246945,-120.152287,24.5,19.431,33.566,45.831,1072.28,0.0,0.305,1.068,19.413, NaN, NaN,23.717,   NaN,18.75,1004.99,95.93,18.75,300.0,289.0,2.3,1.3,316.1,305.2,4.9,5.3,NaN, NaN,21.0,112.0,113.6,1153786343,1153786342,2,10.7,000743,000742,112.0,33.247062,-120.152413,10.58,NaN,NaN,19.711, NaN,NaN,NaN, NaN, NaN
20060725,001253,1555952,33.246292,-120.150658,24.4,19.419,33.565,45.819,1111.23,0.0,0.311,1.103,19.405, NaN, NaN,23.720,   NaN,18.75,1004.99,95.97,18.75,311.0,301.0,2.1,1.6,309.5,305.0,4.6,5.0,NaN, NaN,22.0,109.2,114.7,1153786373,1153786372,2,10.5,000773,000772,109.2,33.246408,-120.150788,10.28,NaN,NaN,19.699, NaN,NaN,NaN, NaN, NaN
20060725,001323,1555982,33.245732,-120.149000,24.1,19.409,33.565,45.809,1166.65,0.0,0.308,1.097,19.398, NaN, NaN,23.723,   NaN,18.75,1004.94,95.93,18.78,289.0,297.0,2.9,2.3,322.2,315.5,5.3,4.9,NaN, NaN,22.0,111.2,111.5,1153786403,1153786402,2,10.4,000803,000802,111.2,33.245850,-120.149128,10.40,NaN,NaN,19.689, NaN,NaN,NaN, NaN, NaN
20060725,001353,1556012,33.245093,-120.147380,24.4,19.399,33.566,45.800,1331.14,0.0,0.308,1.124,19.392, NaN, NaN,23.726,   NaN,18.81,1004.85,95.88,18.81,260.0,290.0,2.5,1.5,312.0,305.7,6.4,5.2,NaN, NaN,22.0,109.5,114.1,1153786433,1153786432,2,10.7,000833,000832,109.5,33.245222,-120.147520,10.33,NaN,NaN,19.679, NaN,NaN,NaN, NaN, NaN
20060725,001423,1556042,33.244518,-120.145728,24.3,19.395,33.563,45.793,1430.01,0.0,0.311,1.155,19.382, NaN, NaN,23.724,   NaN,18.78,1005.02,95.97,18.81,261.0,277.0,1.5,1.5,304.0,305.6,5.9,5.5,NaN, NaN,22.0,109.5,112.9,1153786463,1153786462,2,10.9,000863,000862,109.5,33.244642,-120.145867,10.49,NaN,NaN,19.675, NaN,NaN,NaN, NaN, NaN
20060725,001453,1556073,33.243868,-120.144118,24.0,19.390,33.564,45.789,1264.92,0.0,0.309,1.121,19.376, NaN, NaN,23.727,   NaN,18.84,1005.02,96.06,18.84,282.0,295.0,2.5,1.9,315.4,308.9,5.6,5.1,NaN, NaN,23.0,109.7,118.0,1153786493,1153786492,2,10.7,000893,000892,109.7,33.243993,-120.144243,10.53,NaN,NaN,19.670, NaN,NaN,NaN, NaN, NaN
20060725,001523,1556103,33.243275,-120.142480,24.2,19.387,33.563,45.785,1222.68,0.0,0.311,1.121,19.368, NaN, NaN,23.727,   NaN,18.88,1004.83,96.00,18.88,298.0,299.0,3.2,2.0,323.0,308.6,5.0,5.0,NaN, NaN,22.0,108.5,115.4,1153786523,1153786522,2,10.9,000923,000922,108.5,33.243390,-120.142605,10.46,NaN,NaN,19.667, NaN,NaN,NaN, NaN, NaN
20060725,001553,1556132,33.242670,-120.140852,24.1,19.375,33.561,45.770,1220.88,0.0,0.320,1.168,19.351, NaN, NaN,23.728,   NaN,18.81,1004.88,95.79,18.81,274.0,292.0,2.3,1.4,314.7,306.6,5.9,5.2,NaN, NaN,22.0,111.7,114.9,1153786553,1153786552,2,11.1,000953,000952,111.7,33.242788,-120.140977,10.37,NaN,NaN,19.655, NaN,NaN,NaN, NaN, NaN
20060725,001623,1556162,33.242058,-120.139240,24.4,19.355,33.562,45.752,1201.41,0.0,0.322,1.180,19.337, NaN, NaN,23.734,   NaN,18.84,1004.88,95.82,18.84,267.0,282.0,1.9,0.9,307.2,298.1,5.8,5.3,NaN, NaN,22.0,108.2,111.7,1153786583,1153786582,2,10.1,000983,000982,107.9,33.242172,-120.139372,10.36,NaN,NaN,19.635, NaN,NaN,NaN, NaN, NaN
20060725,001653,1556192,33.241477,-120.137608,24.0,19.326,33.563,45.725,1181.04,0.0,0.327,1.200,19.330, NaN, NaN,23.742,   NaN,18.89,1004.88,96.00,18.89,301.0,284.0,1.8,0.9,308.6,299.1,4.8,5.4,NaN, NaN,21.0,110.0,116.2,1153786613,1153786612,2,11.0,001013,001012,109.5,33.241593,-120.137745,10.47,NaN,NaN,19.606, NaN,NaN,NaN, NaN, NaN
20060725,001723,1556222,33.240852,-120.135968,24.2,19.311,33.564,45.711,1142.09,0.0,0.336,1.241,19.330, NaN, NaN,23.747,   NaN,18.88,1004.80,95.93,18.88,275.0,293.0,2.1,1.5,309.9,304.7,5.9,5.3,NaN, NaN,21.0,109.0,116.0,1153786643,1153786642,2,11.2,001043,001042,108.9,33.240962,-120.136113,10.57,NaN,NaN,19.591, NaN,NaN,NaN, NaN, NaN
20060725,001753,1556253,33.240233,-120.134312,24.1,19.308,33.563,45.708,1083.07,0.0,0.347,1.296,19.330, NaN, NaN,23.747,   NaN,18.88,1004.72,95.82,18.88,270.0,316.0,2.6,1.2,315.3,300.9,6.3,4.9,NaN, NaN,20.0,110.8,112.1,1153786673,1153786672,2,11.0,001073,001072,110.9,33.240343,-120.134455,10.50,NaN,NaN,19.588, NaN,NaN,NaN, NaN, NaN
20060725,001823,1556282,33.239632,-120.132663,23.8,19.312,33.568,45.717,1045.62,0.0,0.349,1.297,19.340, NaN, NaN,23.749,   NaN,18.88,1004.78,95.79,18.88,270.0,280.0,2.1,1.0,308.1,297.5,6.0,5.5,NaN, NaN,20.0,107.9,110.1,1153786703,1153786702,2,10.9,001103,001102,107.9,33.239732,-120.132813,10.52,NaN,NaN,19.592, NaN,NaN,NaN, NaN, NaN
20060725,001853,1556312,33.239008,-120.131020,24.0,19.321,33.563,45.721,1021.05,0.0,0.347,1.284,19.342, NaN, NaN,23.744,   NaN,18.92,1004.94,95.75,18.92,237.0,245.0,1.4,0.7,301.6,297.1,6.5,5.9,NaN, NaN,19.0,111.2,115.0,1153786733,1153786732,2,10.7,001133,001132,111.2,33.239115,-120.131165,10.42,NaN,NaN,19.601, NaN,NaN,NaN, NaN, NaN
20060725,001923,1556342,33.238392,-120.129342,24.4,19.341,33.563,45.739,1012.66,0.0,0.353,1.316,19.345, NaN, NaN,23.738,   NaN,18.89,1004.94,95.85,18.96,287.0,309.0,1.4,1.4,302.4,300.8,5.4,4.9,NaN, NaN,19.0,108.0,112.5,1153786763,1153786762,2,10.9,001163,001162,108.0,33.238498,-120.129505,10.57,NaN,NaN,19.621, NaN,NaN,NaN, NaN, NaN
20060725,001953,1556372,33.237772,-120.127670,24.3,19.354,33.560,45.749,1068.98,0.0,0.359,1.360,19.342, NaN, NaN,23.732,   NaN,18.88,1004.80,95.79,18.88,268.0,282.0,2.5,1.9,315.3,311.3,6.2,5.5,NaN, NaN,20.0,111.6,117.1,1153786793,1153786792,2,11.0,001193,001192,111.6,33.237890,-120.127827,10.79,NaN,NaN,19.634, NaN,NaN,NaN, NaN, NaN
20060725,002023,1556403,33.237153,-120.126003,24.1,19.355,33.562,45.752,1132.20,0.0,0.360,1.381,19.340, NaN, NaN,23.734,   NaN,18.96,1004.85,95.85,18.96,265.0,293.0,2.3,1.8,309.5,306.7,6.2,5.2,NaN, NaN,20.0,108.0,113.6,1153786823,1153786822,2,11.1,001223,001222,108.0,33.237257,-120.126165,10.57,NaN,NaN,19.635, NaN,NaN,NaN, NaN, NaN
20060725,002053,1556433,33.236555,-120.124347,24.1,19.347,33.560,45.742,1420.42,0.0,0.356,1.413,19.334, NaN, NaN,23.735,   NaN,18.92,1005.02,95.69,18.92,263.0,274.0,2.0,1.8,310.9,310.3,6.2,5.8,NaN, NaN,19.0,112.2,115.5,1153786853,1153786852,2,11.1,001253,001252,112.2,33.236670,-120.124500,10.61,NaN,NaN,19.627, NaN,NaN,NaN, NaN, NaN
20060725,002123,1556462,33.235910,-120.122702,24.1,19.336,33.565,45.737,1413.53,0.0,0.349,1.368,19.327, NaN, NaN,23.741,   NaN,18.88,1004.78,95.66,18.88,268.0,283.0,2.8,1.4,314.3,303.1,6.4,5.5,NaN, NaN,19.0,108.4,112.1,1153786883,1153786882,2,11.0,001283,001282,108.4,33.236015,-120.122857,10.78,NaN,NaN,19.616, NaN,NaN,NaN, NaN, NaN
20060725,002153,1556492,33.235345,-120.121015,24.4,19.322,33.565,45.724,1175.64,0.0,0.322,1.176,19.330, NaN, NaN,23.745,   NaN,18.88,1004.75,95.69,18.88,271.0,316.0,3.2,1.2,319.9,300.4,6.5,4.8,NaN, NaN,20.0,110.2,109.1,1153786913,1153786912,2,11.2,001313,001312,110.2,33.235462,-120.121170,10.68,NaN,NaN,19.602, NaN,NaN,NaN, NaN, NaN
20060725,002223,1556522,33.234727,-120.119360,24.1,19.322,33.570,45.729,1077.37,0.0,0.305,1.068,19.334, NaN, NaN,23.748,   NaN,18.88,1004.78,95.69,18.88,294.0,288.0,3.3,1.6,327.0,308.5,5.3,5.4,NaN, NaN,20.0,112.1,111.6,1153786943,1153786942,2,11.3,001343,001342,112.1,33.234842,-120.119508,10.63,NaN,NaN,19.602, NaN,NaN,NaN, NaN, NaN
20060725,002253,1556552,33.234098,-120.117692,24.0,19.333,33.569,45.739,1074.68,0.0,0.289,0.989,19.340, NaN, NaN,23.745,   NaN,18.88,1004.78,95.69,18.88,287.0,289.0,3.0,2.0,320.9,310.7,5.6,5.4,NaN, NaN,19.0,109.9,110.3,1153786973,1153786972,2,11.2,001373,001372,109.9,33.234208,-120.117840,10.59,NaN,NaN,19.613, NaN,NaN,NaN, NaN, NaN
20060725,002323,1556583,33.233487,-120.116003,24.0,19.339,33.570,45.746,1046.81,0.0,0.275,0.916,19.342, NaN, NaN,23.744,   NaN,18.81,1004.72,95.59,18.81,287.0,287.0,3.0,2.1,321.2,311.6,5.6,5.5,NaN, NaN,18.0,110.5,113.5,1153787003,1153787002,2,11.4,001403,001402,110.5,33.233595,-120.116158,10.74,NaN,NaN,19.619, NaN,NaN,NaN, NaN, NaN
20060725,002353,1556613,33.232853,-120.114340,24.0,19.344,33.574,45.757,1030.93,0.0,0.266,0.874,19.351, NaN, NaN,23.746,   NaN,18.88,1004.99,95.62,18.88,298.0,302.0,2.5,2.2,314.6,310.5,5.0,4.9,NaN, NaN,17.0,108.4,115.3,1153787033,1153787032,2,11.2,001433,001432,108.4,33.232952,-120.114505,10.71,NaN,NaN,19.624, NaN,NaN,NaN, NaN, NaN
20060725,002423,1556642,33.232262,-120.112667,24.8,19.355,33.574,45.767,1041.72,0.0,0.263,0.862,19.358, NaN, NaN,23.743,   NaN,18.81,1004.80,95.66,18.81,302.0,298.0,2.9,2.4,320.1,314.5,4.8,5.0,NaN, NaN,18.0,109.0,112.4,1153787063,1153787062,2,10.9,001463,001462,109.0,33.232372,-120.112827,10.53,NaN,NaN,19.635, NaN,NaN,NaN, NaN, NaN
20060725,002453,1556672,33.231643,-120.110995,24.1,19.367,33.579,45.785,1064.19,0.0,0.249,0.801,19.358, NaN, NaN,23.744,   NaN,18.72,1004.78,95.62,18.72,297.0,304.0,2.3,2.1,313.9,311.3,5.1,4.9,NaN, NaN,18.0,110.2,114.3,1153787093,1153787092,2,11.4,001493,001492,110.2,33.231748,-120.111152,10.79,NaN,NaN,19.647, NaN,NaN,NaN, NaN, NaN
20060725,002523,1556702,33.231030,-120.109312,24.1,19.372,33.579,45.789,1140.89,0.0,0.239,0.767,19.361, NaN, NaN,23.742,   NaN,18.78,1004.72,95.59,18.78,304.0,305.0,3.2,3.2,323.4,323.2,4.7,4.7,NaN, NaN,18.0,109.3,117.8,1153787123,1153787122,2,10.8,001523,001522,109.3,33.231132,-120.109463,10.86,NaN,NaN,19.652, NaN,NaN,NaN, NaN, NaN
20060725,002553,1556732,33.230432,-120.107625,24.4,19.375,33.580,45.793,1193.32,0.0,0.232,0.742,19.355, NaN, NaN,23.743,   NaN,18.75,1004.70,95.58,18.75,303.0,301.0,2.1,2.1,309.8,309.5,4.9,5.0,NaN, NaN,18.0,108.7,110.3,1153787153,1153787152,2,11.3,001553,001552,108.7,33.230532,-120.107782,10.58,NaN,NaN,19.655, NaN,NaN,NaN, NaN, NaN
20060725,002623,1556763,33.229813,-120.105953,24.4,19.368,33.582,45.789,1147.78,0.0,0.228,0.719,19.345, NaN, NaN,23.746,   NaN,18.75,1004.72,95.66,18.75,283.0,291.0,2.2,1.8,312.5,308.5,5.6,5.3,NaN, NaN,18.0,110.0,114.7,1153787183,1153787182,2,11.0,001583,001582,110.0,33.229912,-120.106113,10.80,NaN,NaN,19.648, NaN,NaN,NaN, NaN, NaN
20060725,002653,1556792,33.229173,-120.104280,24.2,19.355,33.581,45.775,1142.09,0.0,0.228,0.719,19.330, NaN, NaN,23.748,   NaN,18.75,1004.75,95.75,18.75,305.0,296.0,1.7,1.4,306.3,304.2,4.9,5.2,NaN, NaN,19.0,109.9,116.1,1153787213,1153787212,2,11.1,001613,001612,109.9,33.229283,-120.104447,10.63,NaN,NaN,19.635, NaN,NaN,NaN, NaN, NaN
20060725,002723,1556822,33.228553,-120.102615,24.2,19.338,33.583,45.761,1111.23,0.0,0.218,0.675,19.324, NaN, NaN,23.755,   NaN,18.81,1004.56,95.75,18.81,296.0,303.0,2.8,2.2,317.6,310.0,5.1,4.8,NaN, NaN,19.0,108.0,113.2,1153787243,1153787242,2,11.1,001643,001642,108.0,33.228667,-120.102778,10.74,NaN,NaN,19.618, NaN,NaN,NaN, NaN, NaN
20060725,002753,1556852,33.227950,-120.100937,24.0,19.318,33.586,45.745,1085.46,0.0,0.218,0.673,19.314, NaN, NaN,23.762,   NaN,18.72,1004.61,95.62,18.68,272.0,276.0,2.0,1.8,310.2,308.7,6.0,5.8,NaN, NaN,19.0,110.7,112.4,1153787273,1153787272,2,11.0,001673,001672,110.5,33.228058,-120.101090,10.78,NaN,NaN,19.598, NaN,NaN,NaN, NaN, NaN
20060725,002823,1556882,33.227380,-120.099255,24.1,19.312,33.587,45.740,1057.60,0.0,0.215,0.659,19.309, NaN, NaN,23.764,   NaN,18.75,1004.61,95.72,18.75,292.0,298.0,2.2,2.0,311.7,309.4,5.2,5.0,NaN, NaN,18.0,108.6,110.7,1153787303,1153787302,2,11.0,001703,001702,108.7,33.227475,-120.099408,10.57,NaN,NaN,19.592, NaN,NaN,NaN, NaN, NaN
20060725,002853,1556913,33.226765,-120.097590,24.3,19.313,33.586,45.740,1089.96,0.0,0.214,0.656,19.306, NaN, NaN,23.763,   NaN,18.81,1004.56,95.72,18.81,272.0,284.0,2.8,2.3,318.5,315.5,6.2,5.5,NaN, NaN,19.0,111.7,113.5,1153787333,1153787332,2,11.0,001733,001732,111.7,33.226867,-120.097737,10.82,NaN,NaN,19.593, NaN,NaN,NaN, NaN, NaN
20060725,002923,1556943,33.226160,-120.095908,24.1,19.309,33.587,45.737,1166.65,0.0,0.217,0.675,19.290, NaN, NaN,23.765,   NaN,18.75,1004.43,95.69,18.75,281.0,284.0,2.3,2.2,314.1,313.4,5.7,5.6,NaN, NaN,20.0,110.9,112.3,1153787363,1153787362,2,11.2,001763,001762,110.9,33.226265,-120.096053,10.67,NaN,NaN,19.589, NaN,NaN,NaN, NaN, NaN
20060725,002953,1556972,33.225560,-120.094237,24.0,19.297,33.587,45.727,1088.76,0.0,0.211,0.645,19.272, NaN, NaN,23.768,   NaN,18.81,1004.53,95.69,18.81,285.0,290.0,2.4,1.9,313.2,308.2,5.5,5.3,NaN, NaN,20.0,108.5,113.4,1153787393,1153787392,2,11.2,001793,001792,108.5,33.225658,-120.094390,10.34,NaN,NaN,19.577, NaN,NaN,NaN, NaN, NaN
20060725,003023,1557002,33.224995,-120.092580,24.3,19.285,33.587,45.714,1056.10,0.0,0.197,0.588,19.246, NaN, NaN,23.771,   NaN,18.68,1004.58,95.62,18.68,279.0,288.0,2.5,1.5,316.8,307.3,5.7,5.3,NaN, NaN,19.0,111.2,114.6,1153787423,1153787422,2,10.9,001823,001822,111.2,33.225107,-120.092727,10.57,NaN,NaN,19.565, NaN,NaN,NaN, NaN, NaN
20060725,003053,1557032,33.224370,-120.090955,24.3,19.255,33.587,45.683,1074.68,0.0,0.192,0.569,19.209, NaN, NaN,23.779,   NaN,18.81,1004.56,95.69,18.81,279.0,289.0,3.0,1.5,319.7,305.7,5.9,5.3,NaN, NaN,19.0,109.7,118.1,1153787453,1153787452,2,11.1,001853,001852,109.7,33.224477,-120.091105,10.51,NaN,NaN,19.534, NaN,NaN,NaN, NaN, NaN
20060725,003123,1557062,33.223817,-120.089318,23.9,19.215,33.588,45.646,1304.77,0.0,0.192,0.588,19.182, NaN, NaN,23.790,   NaN,18.78,1004.48,95.62,18.78,265.0,262.0,2.6,1.5,312.4,303.0,6.2,5.9,NaN, NaN,18.0,107.9,110.6,1153787483,1153787482,2,10.7,001883,001882,107.9,33.223913,-120.089470,10.27,NaN,NaN,19.494, NaN,NaN,NaN, NaN, NaN
20060725,003153,1557093,33.223233,-120.087672,24.2,19.169,33.587,45.599,1901.88,0.0,0.193,0.647,19.157, NaN, NaN,23.801,   NaN,18.72,1004.63,95.69,18.72,254.0,261.0,2.2,2.0,310.0,309.3,6.5,6.1,NaN, NaN,18.0,110.9,117.6,1153787513,1153787512,2,11.3,001913,001912,110.9,33.223340,-120.087817,10.78,NaN,NaN,19.448, NaN,NaN,NaN, NaN, NaN
20060725,003223,1557123,33.222640,-120.086033,24.2,19.131,33.591,45.567,1678.98,0.0,0.196,0.638,19.127, NaN, NaN,23.813,   NaN,18.81,1004.51,95.75,18.81,266.0,281.0,2.3,1.4,311.6,304.7,6.1,5.4,NaN, NaN,18.0,109.4,112.5,1153787543,1153787542,2,10.4,001943,001942,109.4,33.222742,-120.086185,10.62,NaN,NaN,19.410, NaN,NaN,NaN, NaN, NaN
20060725,003253,1557152,33.222080,-120.084397,23.9,19.110,33.591,45.548,1330.54,0.0,0.203,0.634,19.102, NaN, NaN,23.819,   NaN,18.75,1004.45,95.59,18.72,263.0,260.0,2.5,1.6,311.5,303.5,6.3,5.9,NaN, NaN,18.0,108.2,110.9,1153787573,1153787572,2,10.7,001973,001972,108.2,33.222183,-120.084540,10.49,NaN,NaN,19.389, NaN,NaN,NaN, NaN, NaN
20060725,003323,1557182,33.221522,-120.082752,24.3,19.086,33.590,45.522,1875.52,0.0,0.196,0.656,19.077, NaN, NaN,23.825,   NaN,18.84,1004.37,95.72,18.84,269.0,273.0,2.1,1.9,311.8,310.4,5.9,5.7,NaN, NaN,18.0,111.0,111.4,1153787603,1153787602,2,10.7,002003,002002,111.0,33.221628,-120.082890,10.57,NaN,NaN,19.365, NaN,NaN,NaN, NaN, NaN
20060725,003353,1557212,33.220908,-120.081148,24.1,19.060,33.592,45.500,1767.06,0.0,0.200,0.663,19.052, NaN, NaN,23.833,   NaN,18.81,1004.58,95.66,18.75,235.0,257.0,1.8,1.6,304.1,306.3,6.6,6.0,NaN, NaN,17.0,111.2,113.6,1153787633,1153787632,2,10.4,002033,002032,111.2,33.221008,-120.081298,10.23,NaN,NaN,19.339, NaN,NaN,NaN, NaN, NaN
20060725,003423,1557242,33.220340,-120.079532,24.1,19.034,33.591,45.473,2012.73,0.0,0.202,0.694,19.043, NaN, NaN,23.838,   NaN,18.78,1004.48,95.66,18.78,282.0,276.0,2.4,1.6,314.8,306.1,5.4,5.5,NaN, NaN,17.0,109.2,112.3,1153787663,1153787662,2,11.0,002063,002062,109.2,33.220432,-120.079677,10.34,NaN,NaN,19.313, NaN,NaN,NaN, NaN, NaN
20060725,003452,1557271,33.219805,-120.077962,24.2,19.005,33.595,45.449,1994.46,0.0,0.202,0.692,19.041, NaN, NaN,23.849,   NaN,18.78,1004.51,95.79,18.78,244.0,251.0,1.8,0.9,303.9,297.6,6.4,5.8,NaN, NaN,17.0,109.4,112.8,1153787692,1153787691,2,10.6,002092,002091,109.4,33.219893,-120.078115,10.55,NaN,NaN,19.284, NaN,NaN,NaN, NaN, NaN
20060725,003523,1557302,33.219232,-120.076278,24.2,19.003,33.597,45.450,2060.07,0.0,0.213,0.749,19.041, NaN, NaN,23.851,   NaN,18.81,1004.48,95.59,18.81,270.0,285.0,1.2,1.0,302.2,300.6,5.6,5.3,NaN, NaN,17.0,109.9,110.7,1153787723,1153787722,2,10.2,002123,002122,109.9,33.219320,-120.076423,10.64,NaN,NaN,19.282, NaN,NaN,NaN, NaN, NaN